Weather History for Flippin, AR

Change the Weather History Date:

Tuesday, December 3, 2013

  Actual Average Record
Temperature  
Mean Temperature 54 °F -  
Max Temperature 66 °F 52 °F 75 °F (2012)
Min Temperature 41 °F 33 °F 19 °F (2000)
Degree Days  
Heating Degree Days 12    
Growing Degree Days 4 (Base 50)    
Moisture  
Dew Point 45 °F    
Average Humidity 73    
Maximum Humidity 82    
Minimum Humidity 52    
Precipitation  
Precipitation 0.00 in - - ()
Sea Level Pressure  
Sea Level Pressure 29.65 in    
Wind  
Wind Speed 3 mph (SE)    
Max Wind Speed 12 mph    
Max Gust Speed 20 mph    
Visibility 5 miles    
Events      
Averages and records for this station are not official NWS values.
T = Trace of Precipitation, MM = Missing Value Source: NWS Daily Summary

Daily Weather History Graph

Daily Weather History Graph

Search for Another Location

Airport:

Trip Planner

Search our weather history database for the weather conditions in past years. The results will help you decide how hot, cold, wet, or windy it might be!

Date:

Astronomy

Dec. 03, 2013 Rise Set
Actual Time 7:05 AM CST 4:55 PM CST
Civil Twilight 6:36 AM CST 5:23 PM CST
Nautical Twilight 6:04 AM CST 5:55 PM CST
Astronomical Twilight 5:33 AM CST 6:26 PM CST
Moon 7:35 AM CST (12/3) 5:58 PM CST (12/3)
Length of Visible Light 10h 46m
Length of Day
9h 50m
New Moon, 1% of the Moon is Illuminated
Dec 3
New Moon
Dec 9
First Quarter
Dec 17
Full
Dec 25
Last Quarter
Jan 1
New

Hourly Weather History & Observations

Time (CST) Temp. Windchill Dew Point Humidity Pressure Visibility Wind Dir Wind Speed Gust Speed Precip Events Conditions
12:15 AM 41.0 °F - 33.8 °F 76% 29.69 in 3.0 mi Calm Calm - N/A   Clear
12:35 AM 42.8 °F 40.1 °F 35.6 °F 76% 29.68 in 5.0 mi SSE 4.6 mph - N/A   Clear
12:55 AM 44.6 °F 43.1 °F 37.4 °F 76% 29.68 in 2.5 mi SSE 3.5 mph - N/A   Mostly Cloudy
1:15 AM 48.2 °F - 42.8 °F 82% 29.67 in 2.0 mi Calm Calm - N/A   Overcast
1:35 AM 46.4 °F - 39.2 °F 76% 29.67 in 2.0 mi Calm Calm - N/A   Overcast
1:55 AM 46.4 °F - 39.2 °F 76% 29.68 in 1.5 mi Calm Calm - N/A   Overcast
2:15 AM 48.2 °F - 41.0 °F 76% 29.67 in 1.8 mi SE 3.5 mph - N/A   Overcast
2:35 AM 48.2 °F - 42.8 °F 82% 29.66 in 2.5 mi Calm Calm - N/A   Overcast
2:55 AM 48.2 °F - 42.8 °F 82% 29.67 in 2.5 mi ESE 3.5 mph - N/A   Overcast
3:15 AM 50.0 °F - 42.8 °F 76% 29.67 in 2.5 mi SE 3.5 mph - N/A   Overcast
3:35 AM 48.2 °F - 42.8 °F 82% 29.66 in 2.0 mi Calm Calm - N/A   Overcast
3:55 AM 50.0 °F - 44.6 °F 82% 29.66 in 1.2 mi Calm Calm - N/A   Mostly Cloudy
4:15 AM 46.4 °F - 39.2 °F 76% 29.65 in 0.2 mi Calm Calm - N/A   Overcast
4:35 AM 46.4 °F - 41.0 °F 81% 29.65 in 0.2 mi Calm Calm - N/A   Overcast
4:55 AM 46.4 °F - 39.2 °F 76% 29.65 in 0.2 mi Calm Calm - N/A   Overcast
5:15 AM 46.4 °F - 39.2 °F 76% 29.65 in 0.2 mi Calm Calm - N/A   Overcast
5:35 AM 44.6 °F - 39.2 °F 81% 29.66 in 0.2 mi Calm Calm - N/A   Overcast
5:55 AM 46.4 °F - 41.0 °F 81% 29.66 in 0.2 mi Calm Calm - N/A   Overcast
6:15 AM 46.4 °F - 39.2 °F 76% 29.66 in 0.2 mi Calm Calm - N/A   Overcast
6:35 AM 46.4 °F 45.2 °F 39.2 °F 76% 29.66 in 0.2 mi ESE 3.5 mph - N/A   Overcast
6:55 AM 46.4 °F - 39.2 °F 76% 29.66 in 0.5 mi Calm Calm - N/A   Overcast
7:15 AM 46.4 °F 45.2 °F 39.2 °F 76% 29.67 in 0.2 mi SE 3.5 mph - N/A   Overcast
7:35 AM 46.4 °F - 41.0 °F 81% 29.67 in 0.5 mi Calm Calm - N/A   Overcast
7:55 AM 48.2 °F - 42.8 °F 82% 29.67 in 1.5 mi SSE 3.5 mph - N/A   Overcast
8:15 AM 50.0 °F - 44.6 °F 82% 29.67 in 2.0 mi Calm Calm - N/A   Overcast
8:35 AM 50.0 °F - 44.6 °F 82% 29.67 in 1.8 mi Calm Calm - N/A   Overcast
8:55 AM 51.8 °F - 44.6 °F 76% 29.68 in 2.5 mi SSE 3.5 mph - N/A   Overcast
9:15 AM 51.8 °F - 46.4 °F 82% 29.69 in 3.0 mi Calm Calm - N/A   Mostly Cloudy
9:35 AM 51.8 °F - 46.4 °F 82% 29.70 in 3.0 mi Calm Calm - N/A   Overcast
9:55 AM 51.8 °F - 46.4 °F 82% 29.70 in 3.0 mi ESE 3.5 mph - N/A   Overcast
10:15 AM 53.6 °F - 46.4 °F 77% 29.69 in 5.0 mi ESE 4.6 mph - N/A   Overcast
10:35 AM 53.6 °F - 46.4 °F 77% 29.69 in 7.0 mi ESE 3.5 mph - N/A   Overcast
10:55 AM 53.6 °F - 46.4 °F 77% 29.69 in 8.0 mi East 4.6 mph - N/A   Overcast
11:15 AM 55.4 °F - 46.4 °F 72% 29.68 in 9.0 mi SE 3.5 mph - N/A   Overcast
11:35 AM 55.4 °F - 46.4 °F 72% 29.66 in 10.0 mi SE 4.6 mph - N/A   Overcast
11:55 AM 57.2 °F - 48.2 °F 72% 29.65 in 10.0 mi East 4.6 mph - N/A   Overcast
12:15 PM 57.2 °F - 48.2 °F 72% 29.65 in 10.0 mi Calm Calm - N/A   Overcast
12:35 PM 59.0 °F - 48.2 °F 67% 29.65 in 10.0 mi Calm Calm - N/A   Mostly Cloudy
12:55 PM 60.8 °F - 48.2 °F 63% 29.64 in 10.0 mi ESE 5.8 mph - N/A   Scattered Clouds
1:15 PM 62.6 °F - 48.2 °F 59% 29.63 in 10.0 mi ESE 5.8 mph - N/A   Partly Cloudy
1:35 PM 62.6 °F - 48.2 °F 59% 29.61 in 10.0 mi ESE 3.5 mph - N/A   Clear
1:55 PM 64.4 °F - 48.2 °F 56% 29.60 in 10.0 mi SE 6.9 mph - N/A   Clear
2:15 PM 66.2 °F - 48.2 °F 52% 29.58 in 10.0 mi SE 10.4 mph - N/A   Clear
2:35 PM 64.4 °F - 48.2 °F 56% 29.58 in 10.0 mi South 10.4 mph - N/A   Scattered Clouds
2:55 PM 64.4 °F - 48.2 °F 56% 29.58 in 10.0 mi South 10.4 mph 19.6 mph N/A   Mostly Cloudy
3:15 PM 62.6 °F - 48.2 °F 59% 29.58 in 10.0 mi SSE 5.8 mph - N/A   Mostly Cloudy
3:35 PM 62.6 °F - 48.2 °F 59% 29.59 in 10.0 mi South 4.6 mph - N/A   Mostly Cloudy
3:55 PM 62.6 °F - 48.2 °F 59% 29.60 in 10.0 mi South 6.9 mph - N/A   Scattered Clouds
4:15 PM 62.6 °F - 48.2 °F 59% 29.60 in 10.0 mi SE 3.5 mph - N/A   Mostly Cloudy
4:35 PM 60.8 °F - 48.2 °F 63% 29.60 in 10.0 mi Calm Calm - N/A   Overcast
4:55 PM 60.8 °F - 48.2 °F 63% 29.62 in 10.0 mi SE 4.6 mph - N/A   Overcast
5:15 PM 60.8 °F - 48.2 °F 63% 29.62 in 10.0 mi SE 3.5 mph - N/A   Overcast
5:35 PM 60.8 °F - 48.2 °F 63% 29.62 in 10.0 mi SSE 3.5 mph - N/A   Overcast
5:55 PM 59.0 °F - 48.2 °F 67% 29.62 in 10.0 mi ESE 6.9 mph - N/A   Overcast
6:15 PM 57.2 °F - 46.4 °F 67% 29.63 in 10.0 mi ESE 8.1 mph - N/A   Overcast
6:35 PM 57.2 °F - 46.4 °F 67% 29.63 in 10.0 mi ESE 9.2 mph - N/A   Overcast
6:55 PM 57.2 °F - 46.4 °F 67% 29.64 in 10.0 mi ESE 11.5 mph - N/A   Overcast
7:15 PM 55.4 °F - 46.4 °F 72% 29.64 in 5.0 mi ESE 9.2 mph - N/A   Overcast
7:35 PM 55.4 °F - 46.4 °F 72% 29.65 in 4.0 mi ESE 8.1 mph - N/A   Overcast
7:55 PM 53.6 °F - 46.4 °F 77% 29.65 in 3.0 mi ESE 6.9 mph - N/A   Overcast
8:15 PM 53.6 °F - 46.4 °F 77% 29.65 in 3.0 mi ESE 6.9 mph - N/A   Overcast
8:35 PM 53.6 °F - 46.4 °F 77% 29.65 in 3.0 mi ESE 5.8 mph - N/A   Overcast
8:55 PM 53.6 °F - 46.4 °F 77% 29.64 in 4.0 mi SE 4.6 mph - N/A   Overcast
9:15 PM 53.6 °F - 46.4 °F 77% 29.64 in 4.0 mi ESE 4.6 mph - N/A   Mostly Cloudy
9:35 PM 53.6 °F - 46.4 °F 77% 29.64 in 5.0 mi Calm Calm - N/A   Overcast
9:55 PM 53.6 °F - 46.4 °F 77% 29.63 in 7.0 mi ESE 5.8 mph - N/A   Overcast
10:15 PM 53.6 °F - 46.4 °F 77% 29.63 in 8.0 mi East 3.5 mph - N/A   Overcast
10:35 PM 53.6 °F - 46.4 °F 77% 29.63 in 6.0 mi East 3.5 mph - N/A   Overcast
10:55 PM 53.6 °F - 46.4 °F 77% 29.65 in 7.0 mi Calm Calm - N/A   Overcast
11:15 PM 53.6 °F - 46.4 °F 77% 29.64 in 6.0 mi East 4.6 mph - N/A   Overcast
11:35 PM 53.6 °F - 46.4 °F 77% 29.64 in 5.0 mi ESE 4.6 mph - N/A   Overcast
11:55 PM 53.6 °F - 46.4 °F 77% 29.64 in 5.0 mi Calm Calm - N/A   Overcast